CW3816 Weather Reports


time (UTC)temp
C
wind
direction
speed
KPH
gust
KPH
rain 1hr
cm
rain 24hr
cm
rain mn
cm
humidity
%
barometer
mb
20260510060342 12 198 0.0 0.0 0.00 0.00 0.00 88 1009.8
20260510054903 12 198 0.0 0.0 0.00 0.00 0.00 87 1009.9
20260510053406 12 198 0.0 0.0 0.00 0.00 0.00 86 1009.9
20260510051845 12 198 0.0 0.0 0.00 0.00 0.00 85 1009.8
20260510050345 13 198 0.0 0.0 0.00 0.00 0.00 84 1009.8
20260510044842 13 198 0.0 0.0 0.00 0.00 0.00 83 1009.8
20260510043348 13 198 0.0 0.0 0.00 0.00 0.00 82 1009.6
20260510041905 13 198 0.0 0.0 0.00 0.00 0.00 82 1009.6
20260510040346 13 198 0.0 0.0 0.00 0.00 0.00 81 1009.8
20260510034853 14 198 0.0 0.0 0.00 0.00 0.00 80 1009.7
20260510033355 14 198 0.0 0.0 0.00 0.00 0.00 78 1009.5
20260510031853 15 198 0.0 0.0 0.00 0.00 0.00 76 1009.3
20260510030340 15 198 0.0 0.0 0.00 0.00 0.00 76 1009.3
20260510024856 15 198 0.0 0.0 0.00 0.00 0.00 75 1009.0
20260510023420 16 198 0.0 0.0 0.00 0.00 0.00 72 1009.0
20260510021839 16 198 0.0 0.0 0.00 0.00 0.00 70 1009.0
20260510020343 17 198 0.0 0.0 0.00 0.00 0.00 67 1008.8
20260510014900 17 198 0.0 0.0 0.00 0.00 0.00 66 1008.5
20260510013342 18 198 0.0 0.0 0.00 0.00 0.00 63 1008.3
20260510011842 18 198 0.0 0.0 0.00 0.00 0.00 61 1008.0
20260510010342 19 198 0.0 0.0 0.00 0.00 0.00 58 1008.0
20260510004839 20 198 0.0 0.0 0.00 0.00 0.00 56 1007.8
20260510003403 20 198 0.0 0.0 0.00 0.00 0.00 53 1007.5
20260510001843 21 198 0.0 0.0 0.00 0.00 0.00 52 1007.5
20260510000404 22 198 0.0 0.0 0.00 0.00 0.00 49 1007.5
20260509234843 22 198 0.0 0.0 0.00 0.00 0.00 47 1007.2
20260509233346 22 206 0.0 0.0 0.00 0.00 0.00 46 1007.1
20260509231847 22 226 0.0 0.0 0.00 0.00 0.00 44 1007.1
20260509230347 23 264 0.0 0.0 0.00 0.00 0.00 44 1007.1
20260509224908 23 264 0.0 0.0 0.00 0.00 0.00 44 1007.0
20260509223415 23 264 0.0 0.0 0.00 0.00 0.00 45 1007.1
20260509221914 23 95 0.0 0.0 0.00 0.00 0.00 43 1007.2
20260509220354 23 17 0.0 0.0 0.00 0.00 0.00 43 1007.1
20260509214917 23 313 0.0 0.0 0.00 0.00 0.00 41 1007.1
20260509213341 24 3 0.0 0.0 0.00 0.00 0.00 39 1007.1
20260509211844 25 220 0.0 0.0 0.00 0.00 0.00 38 1007.0
20260509210345 25 110 0.0 0.0 0.00 0.00 0.00 37 1006.9
20260509204906 26 148 0.0 0.0 0.00 0.00 0.00 35 1006.9
20260509203348 26 73 0.0 0.0 0.00 0.00 0.00 38 1006.8
20260509201848 26 188 0.0 0.0 0.00 0.00 0.00 37 1006.9
20260509200354 26 169 0.0 0.0 0.00 0.00 0.00 38 1007.0
20260509194851 26 100 1.6 0.0 0.00 0.00 0.00 37 1007.4
20260509193351 25 336 0.0 0.0 0.00 0.00 0.00 40 1007.5
20260509191912 26 80 0.0 0.0 0.00 0.00 0.00 38 1007.7
20260509190358 26 85 0.0 0.0 0.00 0.00 0.00 38 1007.9
20260509184854 26 79 0.0 0.0 0.00 0.00 0.00 37 1008.1
20260509183354 25 119 0.0 0.0 0.00 0.00 0.00 41 1008.4
20260509181834 24 86 0.0 0.0 0.00 0.00 0.00 44 1008.6
20260509180401 23 37 0.0 0.0 0.00 0.00 0.00 46 1008.8
20260509174840 22 208 0.0 0.0 0.00 0.00 0.00 53 1009.0
20260509173344 22 45 0.0 0.0 0.00 0.00 0.00 53 1009.0
20260509171840 21 59 0.0 0.0 0.00 0.00 0.00 52 1009.2
20260509170341 22 126 0.0 0.0 0.00 0.00 0.00 51 1009.4
20260509164838 21 263 0.0 0.0 0.00 0.00 0.00 54 1009.5
20260509163344 21 360 0.0 0.0 0.00 0.00 0.00 52 1009.5
20260509161841 21 174 0.0 0.0 0.00 0.00 0.00 53 1009.5
20260509160340 21 117 0.0 0.0 0.00 0.00 0.00 52 1009.6
20260509154844 21 104 0.0 0.0 0.00 0.00 0.00 51 1009.5
20260509153347 21 68 0.0 0.0 0.00 0.00 0.00 51 1009.7
20260509151842 21 89 0.0 0.0 0.00 0.00 0.00 50 1010.0
20260509150410 20 86 0.0 0.0 0.00 0.00 0.00 53 1009.8
20260509144845 19 48 0.0 0.0 0.00 0.00 0.00 54 1010.1
20260509143346 18 83 0.0 0.0 0.00 0.00 0.00 57 1010.4
20260509141846 17 270 0.0 0.0 0.00 0.00 0.00 58 1010.6
20260509140353 17 86 0.0 0.0 0.00 0.00 0.00 59 1010.6
20260509134853 16 48 0.0 0.0 0.00 0.00 0.00 61 1010.9
20260509133352 16 240 0.0 0.0 0.00 0.00 0.00 61 1011.0
20260509131857 15 35 0.0 0.0 0.00 0.00 0.00 64 1011.0
20260509130356 15 47 0.0 0.0 0.00 0.00 0.00 65 1011.0
20260509124853 14 200 0.0 0.0 0.00 0.00 0.00 66 1011.1
20260509123356 14 59 0.0 0.0 0.00 0.00 0.00 67 1011.1
20260509121853 13 73 0.0 0.0 0.00 0.00 0.00 68 1010.9
20260509120355 13 234 0.0 0.0 0.00 0.00 0.00 69 1010.9
20260509114850 13 27 0.0 0.0 0.00 0.00 0.00 69 1011.1
20260509113357 12 117 0.0 0.0 0.00 0.00 0.00 71 1011.0
20260509111854 12 86 0.0 0.0 0.00 0.00 0.00 70 1011.0
20260509110400 12 86 0.0 0.0 0.00 0.00 0.00 70 1010.9
20260509104901 12 86 0.0 0.0 0.00 0.00 0.00 69 1010.8
20260509103404 12 83 0.0 0.0 0.00 0.00 0.00 68 1010.8
20260509101901 12 164 0.0 0.0 0.00 0.00 0.00 67 1010.8
20260509100348 12 164 0.0 0.0 0.00 0.00 0.00 67 1010.6
20260509094842 12 241 0.0 0.0 0.00 0.00 0.00 66 1010.7
20260509093344 12 244 0.0 0.0 0.00 0.00 0.00 65 1010.8
20260509091841 12 257 0.0 0.0 0.00 0.00 0.00 66 1010.9
20260509090344 12 270 0.0 0.0 0.00 0.00 0.00 63 1010.9
20260509084859 12 248 0.0 0.0 0.00 0.00 0.00 64 1011.1
20260509083339 12 248 0.0 0.0 0.00 0.00 0.00 64 1011.2
20260509081843 12 250 0.0 0.0 0.00 0.00 0.00 64 1011.4
20260509080342 12 251 0.0 0.0 0.00 0.00 0.00 64 1011.6
20260509074856 12 251 0.0 0.0 0.00 0.00 0.00 63 1011.6
20260509073400 12 251 0.0 0.0 0.00 0.00 0.00 64 1011.7
20260509071855 12 251 0.0 0.0 0.00 0.00 0.00 61 1011.7
20260509070355 12 251 0.0 0.0 0.00 0.00 0.00 60 1011.9
20260509064858 12 251 0.0 0.0 0.00 0.00 0.00 62 1011.8
20260509063357 12 251 0.0 0.0 0.00 0.00 0.00 60 1011.8
20260509061854 12 251 0.0 0.0 0.00 0.00 0.00 57 1011.9